FW3899 Weather Reports


Display with metric or nautical units.
time (UTC)temp
F
wind
direction
speed
MPH
gust
MPH
rain 1hr
in
rain 24hr
in
rain mn
in
humidity
%
barometer
mb
20260904053011 60 212 0.0 0.0 0.00 0.00 0.00 78 1019.8
20260904051508 58 212 0.0 0.0 0.00 0.00 0.00 80 1019.8
20260904050004 58 212 0.0 0.0 0.00 0.00 0.00 81 1019.8
20260904044506 57 213 0.0 0.0 0.00 0.00 0.00 81 1020.0
20260904043111 58 216 0.0 3.0 0.00 0.00 0.00 81 1020.0
20260904041602 58 216 0.0 0.0 0.00 0.00 0.00 81 1020.0
20260904040058 58 216 0.0 4.0 0.00 0.00 0.00 81 1020.0
20260904034556 58 304 0.0 0.0 0.00 0.00 0.00 80 1020.3
20260904033053 59 245 0.0 1.0 0.00 0.00 0.00 79 1020.5
20260904031552 59 204 1.0 3.0 0.00 0.00 0.00 79 1020.4
20260904030051 59 204 0.0 3.0 0.00 0.00 0.00 78 1020.3
20260904024559 59 204 0.0 3.0 0.00 0.00 0.00 79 1020.5
20260904023047 59 198 2.0 4.0 0.00 0.00 0.00 78 1020.7
20260904021552 60 156 0.0 0.0 0.00 0.00 0.00 76 1020.8
20260904020045 60 151 0.0 0.0 0.00 0.00 0.00 76 1020.8
20260904014550 60 213 0.0 2.0 0.00 0.00 0.00 77 1020.9
20260904013104 60 215 2.0 3.0 0.00 0.00 0.00 79 1021.2
20260904011539 60 255 0.0 2.0 0.00 0.00 0.00 77 1021.3
20260904010037 60 251 1.0 3.0 0.00 0.00 0.00 77 1021.3
20260904004537 61 215 0.0 0.0 0.00 0.00 0.00 77 1021.2
20260904003034 61 215 0.0 3.0 0.00 0.00 0.00 76 1021.2
20260904001550 62 217 1.0 3.0 0.00 0.00 0.00 74 1021.3
20260904000027 63 218 0.0 0.0 0.00 0.00 0.00 72 1021.4
20260903234527 65 218 0.0 0.0 0.00 0.00 0.00 70 1021.4
20260903233037 66 218 0.0 3.0 0.00 0.00 0.00 68 1021.4
20260903231525 67 216 3.0 6.0 0.00 0.00 0.00 66 1021.5
20260903230029 66 227 4.0 6.0 0.00 0.00 0.00 67 1021.5
20260903224526 66 205 3.0 6.0 0.00 0.00 0.00 68 1021.6
20260903223020 66 205 4.0 7.0 0.00 0.00 0.00 69 1021.7
20260903221516 65 208 4.0 8.0 0.00 0.00 0.00 71 1021.8
20260903220012 63 221 2.0 4.0 0.00 0.00 0.00 74 1021.9
20260903214512 63 214 2.0 4.0 0.00 0.00 0.00 76 1022.0
20260903213010 63 217 1.0 4.0 0.00 0.00 0.00 75 1021.9
20260903211510 63 227 2.0 4.0 0.00 0.00 0.00 75 1021.8
20260903210010 64 224 2.0 4.0 0.00 0.00 0.00 74 1021.9
20260903204510 64 248 1.0 4.0 0.00 0.00 0.00 73 1021.8
20260903203008 64 223 2.0 4.0 0.00 0.00 0.00 73 1021.8
20260903201510 64 224 0.0 3.0 0.00 0.00 0.00 73 1021.7
20260903200008 64 224 1.0 3.0 0.00 0.00 0.00 73 1021.6
20260903194507 65 225 0.0 4.0 0.00 0.00 0.00 73 1021.6
20260903193013 66 228 1.0 2.0 0.00 0.00 0.00 70 1021.5
20260903191507 66 228 0.0 4.0 0.00 0.00 0.00 68 1021.4
20260903190011 67 236 0.0 4.0 0.00 0.00 0.00 66 1021.3
20260903184507 67 234 3.0 5.0 0.00 0.00 0.00 67 1020.9
20260903183012 68 220 2.0 5.0 0.00 0.00 0.00 66 1020.7
20260903181502 69 218 2.0 5.0 0.00 0.00 0.00 64 1020.6
20260903180003 70 224 3.0 5.0 0.00 0.00 0.00 64 1020.5
20260903174502 72 227 2.0 4.0 0.00 0.00 0.00 61 1020.6
20260903173108 74 271 2.0 6.0 0.00 0.00 0.00 57 1020.5
20260903171600 76 281 4.0 10.0 0.00 0.00 0.00 54 1020.5
20260903170059 77 295 3.0 10.0 0.00 0.00 0.00 52 1020.5
20260903164559 78 321 5.0 8.0 0.00 0.00 0.00 50 1020.5
20260903163133 78 263 4.0 7.0 0.00 0.00 0.00 54 1020.6
20260903161556 78 268 6.0 9.0 0.00 0.00 0.00 53 1020.4
20260903160054 79 287 5.0 9.0 0.00 0.00 0.00 51 1020.4
20260903154553 79 248 5.0 8.0 0.00 0.00 0.00 51 1020.6
20260903153052 79 271 8.0 11.0 0.00 0.00 0.00 50 1020.7
20260903151551 79 256 10.0 16.0 0.00 0.00 0.00 50 1020.7
20260903150052 80 284 6.0 13.0 0.00 0.00 0.00 49 1020.7
20260903144552 80 270 9.0 15.0 0.00 0.00 0.00 48 1020.7
20260903143048 80 275 6.0 12.0 0.00 0.00 0.00 47 1020.6
20260903141546 80 218 7.0 11.0 0.00 0.00 0.00 46 1020.6
20260903140046 80 272 6.0 14.0 0.00 0.00 0.00 46 1020.5
20260903134547 79 222 6.0 14.0 0.00 0.00 0.00 48 1020.6
20260903133049 79 245 7.0 16.0 0.00 0.00 0.00 47 1020.6
20260903131541 79 232 7.0 18.0 0.00 0.00 0.00 48 1020.7
20260903130038 79 219 8.0 13.0 0.00 0.00 0.00 50 1020.8
20260903124536 78 278 8.0 15.0 0.00 0.00 0.00 50 1020.9
20260903123035 78 321 6.0 15.0 0.00 0.00 0.00 50 1021.1
20260903121541 78 265 8.0 13.0 0.00 0.00 0.00 53 1021.2
20260903120042 77 295 8.0 15.0 0.00 0.00 0.00 53 1021.3
20260903114529 77 222 8.0 14.0 0.00 0.00 0.00 51 1021.5
20260903113025 76 258 8.0 17.0 0.00 0.00 0.00 52 1021.5
20260903111524 76 243 11.0 17.0 0.00 0.00 0.00 54 1021.5
20260903110022 76 287 10.0 14.0 0.00 0.00 0.00 57 1021.6
20260903104518 76 270 12.0 17.0 0.00 0.00 0.00 57 1021.6
20260903103019 75 259 10.0 16.0 0.00 0.00 0.00 59 1021.8
20260903101512 74 280 5.0 13.0 0.00 0.00 0.00 60 1021.8
20260903100009 73 279 6.0 13.0 0.00 0.00 0.00 63 1022.0
20260903094506 74 275 4.0 11.0 0.00 0.00 0.00 62 1021.9
20260903093002 73 303 5.0 9.0 0.00 0.00 0.00 62 1022.0
20260903091559 73 284 8.0 12.0 0.00 0.00 0.00 62 1022.0
20260903090056 72 225 6.0 10.0 0.00 0.00 0.00 63 1022.1
20260903084551 72 283 2.0 8.0 0.00 0.00 0.00 67 1021.9
20260903083049 72 236 5.0 9.0 0.00 0.00 0.00 68 1022.3
20260903081544 71 41 0.0 0.0 0.00 0.00 0.00 72 1022.0
20260903080141 70 51 0.0 0.0 0.00 0.00 0.00 72 1021.8
20260903074537 70 70 0.0 0.0 0.00 0.00 0.00 73 1021.8
20260903073038 68 71 0.0 0.0 0.00 0.00 0.00 73 1021.8
20260903071530 68 80 0.0 0.0 0.00 0.00 0.00 74 1022.1
20260903070024 66 71 0.0 0.0 0.00 0.00 0.00 78 1022.0
20260903064520 66 162 0.0 0.0 0.00 0.00 0.00 78 1022.1
20260903063019 66 237 0.0 0.0 0.00 0.00 0.00 77 1022.2
20260903061511 63 237 0.0 0.0 0.00 0.00 0.00 79 1021.9
20260903060008 63 237 0.0 0.0 0.00 0.00 0.00 81 1022.1
20260903054511 61 220 0.0 0.0 0.00 0.00 0.00 83 1021.9